EN

Hourly Weather Pomonyata

Today, 16 May, Sunday

Time Temperature Precipitation Wind Pressure Humidity
00:00 +10°C° 0 mm 2 mps 733 mmHg 91%
01:00 +9°C° 0 mm 2 mps 733 mmHg 92%
02:00 +9°C° 0 mm 2 mps 733 mmHg 93%
03:00 +9°C° 0 mm 2 mps 733 mmHg 93%
04:00 +8°C° 0 mm 2 mps 733 mmHg 93%
05:00 +8°C° 0 mm 2 mps 733 mmHg 94%
06:00 +10°C° 0 mm 2 mps 733 mmHg 90%
07:00 +12°C° 0 mm 3 mps 733 mmHg 85%
08:00 +13°C° 0 mm 3 mps 733 mmHg 81%
09:00 +16°C° 0 mm 3 mps 733 mmHg 76%
10:00 +18°C° 0 mm 3 mps 733 mmHg 70%
11:00 +20°C° 0 mm 3 mps 732 mmHg 65%
12:00 +20°C° 0.6 mm 4 mps 732 mmHg 66%
13:00 +20°C° 0.6 mm 4 mps 732 mmHg 67%
14:00 +20°C° 0.6 mm 5 mps 732 mmHg 68%
15:00 +20°C° 0.9 mm 4 mps 731 mmHg 71%
16:00 +19°C° 0.9 mm 4 mps 731 mmHg 74%
17:00 +18°C° 0.9 mm 3 mps 731 mmHg 78%
18:00 +17°C° 0.5 mm 3 mps 731 mmHg 81%
19:00 +16°C° 0.5 mm 2 mps 731 mmHg 85%
20:00 +14°C° 0.5 mm 2 mps 731 mmHg 88%
21:00 +14°C° 0.2 mm 2 mps 732 mmHg 89%
22:00 +14°C° 0.2 mm 2 mps 732 mmHg 90%
23:00 +13°C° 0.2 mm 2 mps 732 mmHg 91%

Tomorrow, 17 May, Monday

Time Temperature Precipitation Wind Pressure Humidity
00:00 +13°C° 0 mm 1 mps 732 mmHg 91%
01:00 +12°C° 0 mm 1 mps 732 mmHg 91%
02:00 +12°C° 0 mm 1 mps 732 mmHg 90%
03:00 +11°C° 0 mm 1 mps 732 mmHg 91%
04:00 +11°C° 0 mm 1 mps 732 mmHg 91%
05:00 +10°C° 0 mm 1 mps 732 mmHg 91%
06:00 +12°C° 0 mm 1 mps 732 mmHg 88%
07:00 +13°C° 0 mm 1 mps 732 mmHg 84%
08:00 +15°C° 0 mm 1 mps 733 mmHg 80%
09:00 +16°C° 0 mm 1 mps 732 mmHg 75%
10:00 +18°C° 0 mm 1 mps 732 mmHg 69%
11:00 +20°C° 0 mm 1 mps 732 mmHg 63%
12:00 +20°C° 0 mm 1 mps 731 mmHg 61%
13:00 +21°C° 0 mm 1 mps 731 mmHg 59%
14:00 +20°C° 0 mm 2 mps 730 mmHg 57%
15:00 +20°C° 0 mm 2 mps 730 mmHg 60%
16:00 +20°C° 0 mm 2 mps 730 mmHg 62%
17:00 +20°C° 0 mm 2 mps 729 mmHg 64%
18:00 +18°C° 0.5 mm 2 mps 729 mmHg 70%
19:00 +18°C° 0.5 mm 1 mps 729 mmHg 77%
20:00 +15°C° 0.5 mm 1 mps 729 mmHg 83%
21:00 +15°C° 0.7 mm 1 mps 729 mmHg 86%
22:00 +14°C° 0.7 mm 1 mps 729 mmHg 90%
23:00 +14°C° 0.7 mm 1 mps 728 mmHg 94%

Day after tomorrow, 18 May, Tuesday

Time Temperature Precipitation Wind Pressure Humidity
00:00 +12°C° 1.9 mm 3 mps 728 mmHg 95%
01:00 +11°C° 1.9 mm 4 mps 728 mmHg 96%
02:00 +10°C° 1.9 mm 6 mps 728 mmHg 97%
03:00 +9°C° 1.2 mm 6 mps 729 mmHg 96%
04:00 +9°C° 1.2 mm 6 mps 729 mmHg 95%
05:00 +8°C° 1.2 mm 6 mps 729 mmHg 94%
06:00 +8°C° 0.1 mm 6 mps 730 mmHg 93%
07:00 +9°C° 0.1 mm 6 mps 730 mmHg 92%
08:00 +9°C° 0.1 mm 6 mps 730 mmHg 90%
09:00 +9°C° 0.2 mm 7 mps 731 mmHg 89%
10:00 +9°C° 0.2 mm 7 mps 731 mmHg 88%
11:00 +10°C° 0.2 mm 8 mps 732 mmHg 87%
12:00 +10°C° 0.3 mm 7 mps 732 mmHg 84%
13:00 +11°C° 0.3 mm 7 mps 732 mmHg 81%
14:00 +12°C° 0.3 mm 7 mps 732 mmHg 78%
15:00 +12°C° 0.3 mm 7 mps 732 mmHg 78%
16:00 +13°C° 0.3 mm 6 mps 732 mmHg 78%
17:00 +14°C° 0.3 mm 6 mps 732 mmHg 77%
18:00 +12°C° 0.3 mm 5 mps 732 mmHg 81%
19:00 +11°C° 0.3 mm 4 mps 732 mmHg 85%
20:00 +10°C° 0.3 mm 4 mps 732 mmHg 89%
21:00 +8°C° 0 mm 4 mps 733 mmHg 90%
22:00 +8°C° 0 mm 4 mps 733 mmHg 91%
23:00 +7°C° 0 mm 4 mps 733 mmHg 93%

19 May, Wednesday

Time Temperature Precipitation Wind Pressure Humidity
00:00 +7°C° 0 mm 4 mps 733 mmHg 92%
01:00 +7°C° 0 mm 4 mps 733 mmHg 92%
02:00 +7°C° 0 mm 5 mps 734 mmHg 92%
03:00 +6°C° 0 mm 5 mps 734 mmHg 93%
04:00 +6°C° 0 mm 4 mps 734 mmHg 94%
05:00 +6°C° 0 mm 4 mps 734 mmHg 94%
06:00 +7°C° 0 mm 5 mps 734 mmHg 91%
07:00 +9°C° 0 mm 6 mps 735 mmHg 87%
08:00 +10°C° 0 mm 6 mps 735 mmHg 83%
09:00 +11°C° 0.1 mm 7 mps 735 mmHg 78%
10:00 +12°C° 0.1 mm 7 mps 735 mmHg 72%
11:00 +14°C° 0.1 mm 7 mps 736 mmHg 66%
12:00 +14°C° 0.2 mm 7 mps 736 mmHg 67%
13:00 +14°C° 0.2 mm 6 mps 736 mmHg 67%
14:00 +14°C° 0.2 mm 6 mps 736 mmHg 67%
15:00 +14°C° 0.1 mm 6 mps 736 mmHg 69%
16:00 +14°C° 0.1 mm 5 mps 736 mmHg 71%
17:00 +14°C° 0.1 mm 5 mps 736 mmHg 72%
18:00 +13°C° 0.1 mm 4 mps 737 mmHg 77%
19:00 +11°C° 0.1 mm 3 mps 737 mmHg 82%
20:00 +10°C° 0.1 mm 3 mps 737 mmHg 87%
21:00 +9°C° 0 mm 2 mps 738 mmHg 89%
22:00 +8°C° 0 mm 2 mps 738 mmHg 91%
23:00 +8°C° 0 mm 2 mps 738 mmHg 93%

20 May, Thursday

Time Temperature Precipitation Wind Pressure Humidity
00:00 +7°C° 0 mm 2 mps 738 mmHg 94%
01:00 +7°C° 0 mm 2 mps 739 mmHg 94%
02:00 +8°C° 0 mm 1 mps 739 mmHg 94%
03:00 +7°C° 0 mm 2 mps 739 mmHg 95%
04:00 +7°C° 0 mm 2 mps 739 mmHg 95%
05:00 +7°C° 0 mm 2 mps 739 mmHg 96%
06:00 +8°C° 0 mm 2 mps 740 mmHg 91%
07:00 +9°C° 0 mm 2 mps 740 mmHg 87%
08:00 +10°C° 0 mm 3 mps 740 mmHg 82%
09:00 +12°C° 0 mm 3 mps 740 mmHg 75%
10:00 +13°C° 0 mm 3 mps 740 mmHg 68%
11:00 +14°C° 0 mm 3 mps 740 mmHg 61%
12:00 +16°C° 0.1 mm 3 mps 740 mmHg 59%
13:00 +16°C° 0.1 mm 3 mps 740 mmHg 57%
14:00 +17°C° 0.1 mm 3 mps 740 mmHg 55%
15:00 +17°C° 0.1 mm 3 mps 740 mmHg 56%
16:00 +17°C° 0.1 mm 2 mps 739 mmHg 58%
17:00 +17°C° 0.1 mm 2 mps 739 mmHg 60%
18:00 +15°C° 0 mm 2 mps 739 mmHg 65%
19:00 +14°C° 0 mm 1 mps 739 mmHg 71%
20:00 +12°C° 0 mm 1 mps 739 mmHg 77%
21:00 +11°C° 0 mm 1 mps 739 mmHg 79%
22:00 +11°C° 0 mm 1 mps 739 mmHg 82%
23:00 +10°C° 0 mm 1 mps 740 mmHg 84%

21 May, Friday

Time Temperature Precipitation Wind Pressure Humidity
00:00 +8°C° 0 mm 2 mps 739 mmHg 85%
01:00 +8°C° 0 mm 2 mps 739 mmHg 86%
02:00 +8°C° 0 mm 2 mps 739 mmHg 87%
03:00 +8°C° 0 mm 2 mps 739 mmHg 85%
04:00 +8°C° 0 mm 3 mps 739 mmHg 84%
05:00 +8°C° 0 mm 3 mps 739 mmHg 83%
06:00 +10°C° 0 mm 3 mps 739 mmHg 78%
07:00 +12°C° 0 mm 4 mps 738 mmHg 74%
08:00 +14°C° 0 mm 4 mps 738 mmHg 69%
09:00 +15°C° 0 mm 5 mps 738 mmHg 64%
10:00 +17°C° 0 mm 5 mps 738 mmHg 59%
11:00 +19°C° 0 mm 6 mps 738 mmHg 53%
12:00 +20°C° 0 mm 6 mps 738 mmHg 53%
13:00 +21°C° 0 mm 5 mps 738 mmHg 52%
14:00 +21°C° 0 mm 5 mps 737 mmHg 51%
15:00 +20°C° 0.2 mm 5 mps 738 mmHg 57%
16:00 +19°C° 0.2 mm 5 mps 738 mmHg 63%
17:00 +17°C° 0.2 mm 5 mps 738 mmHg 69%
18:00 +15°C° 0 mm 4 mps 738 mmHg 75%
19:00 +13°C° 0 mm 3 mps 738 mmHg 80%
20:00 +12°C° 0 mm 2 mps 738 mmHg 86%
21:00 +10°C° 0 mm 2 mps 737 mmHg 87%
22:00 +10°C° 0 mm 2 mps 737 mmHg 88%
23:00 +9°C° 0 mm 2 mps 737 mmHg 89%
Show more

We Need Your Consent

Meteoprog and our Service Providers may store and access personal data such as cookies, device identifiers or other similar technologies on your device and process such data to personalise content and ads, as well as provide social media features and to analyse the traffic.

  • Store and/or access information on your device

    Cookies, device identifiers or other information can be stored or accessed on your device for the purposes indicated above.

  • Personalised ads and content, ad and content measurement, audience insights, and products development

    Ads and content can be personalised based on a profile. More data can be added to better personalise ads and content. Ad and content performance can be measured. Insights about the audience who saw the ads and content can be derived. Such data can be used to develop or improve user’s experience, systems and software.

By clicking ‘I Agree’ you will allow the use of indicated cookies, device identifiers, web beacons or other similar technologies. Your settings can be changed in the browser on your device.

For certain purposes, legitimate interests may be relied on, rather than consent. You can read more about this in our Privacy and Cookie Policy.